Location: Augustenthal
(51.7167°N, 10.2833°E)
Time: 07:35:35
(UTC+00:00)

Cosmos 1818 - Pass Details

Date: 18 May 2021
Orbit: 771 x 802 km, 65.0° (Epoch: 20 June)

Event Time Altitude Azimuth Distance (km) Brightness Sun altitude
Rises 20:23:53 0° 317° (NW) 3,322 9.2 -9.3°
Reaches altitude 10° 20:26:21 10° 314° (NW) 2,388 7.7 -9.6°
Maximum altitude 20:31:46 63° 234° (SW) 892 3.9 -10.1°
Enters shadow 20:36:36 13° 156° (SSE) 2,160 5.2 -10.6°
